www.pogodaiklimat.ru

Погода и климат >> Архив погоды >> Россия >> Ленинградская область >> Кингисепп


АРХИВ ПОГОДЫ в Кингисеппе

Время (UTC), дата Ветер
(напр.,м/с)
 
Видим.   Явления Облачность Т
(С)
Тd
(С)
f
(%)
Тe
(С)
Тes
(С)
Комфортность P
(гПа)
Po
(гПа)
Тmin
(С)
Tmax
(С)
R
(мм)
R24
(мм)
S
(см)
06 12.09 Ю 2 20 км 9/1 600 м
[Sc Ci fib]
+14.4 +10.6 78 +14 +15 1019.2 1016.8 +11.7 0.0
09 12.09 Ю 4 20 км 4/3 600 м
[Sc Ac trans]
+18.9 +9.9 56 +20 +22 1018.1 1015.7
12 12.09 Ю 3
{10}
20 км в посл. час ливневой дождь 10/3 600 м
[Cb cap Ac und]
+18.3 +8.7 53 +19 +20 1017.0 1014.6
15 12.09 ЮЗ 3
{10}
10 км в посл. час ливневой дождь 10/3 600 м
[Sc Ac und]
+16.7 +10.9 69 +16 +17 1016.4 1014.0 0.0
18 12.09 ЮЗ 2 10 км {ливн. осадки} 3/3 600 м
[Sc]
+14.7 +11.9 83 +14 +14 1015.9 1013.5 +20.5 0.0
21 12.09 ЮЗ 3 10 км ясно +13.7 +10.7 82 +13 +13 1015.9 1013.5
00 13.09 Ю 1 10 км 6/0
[Ci fib]
+12.5 +11.0 91 +12 +12 1015.0 1012.6
03 13.09 ЮЗ 3 10 км 10/5 600 м
[Cb cap Ac trans Ci fib]
+14.1 +12.1 88 +13 +13 1013.7 1011.3 +12.4
06 13.09 Ю 2 10 км слаб. ливневой дождь 10/8 500 м
[Cb cap Ac und]
+14.3 +12.8 91 +14 +14 1011.9 1009.5 +12.4 0.5
09 13.09 ЮЗ 3 10 км слаб. ливневой дождь 10/6 600 м
[Cb cap Ac und]
+13.0 +11.9 93 +12 +12 1011.3 1008.9
12 13.09 ЮЗ 3 10 км {ливн. осадки} 9/6 600 м
[Sc Ac As]
+15.0 +12.8 87 +14 +15 1009.3 1006.9
15 13.09 ЮЗ 2 10 км в посл. час ливневой дождь 10/10 630 м
[Sc]
+13.4 +12.5 94 +13 +13 1007.7 1005.3 10
18 13.09 З 1 10 км в посл. час ливневой дождь 10/10 750 м
[Cb cap]
+12.2 +11.4 95 +12 +12 1007.5 1005.1 +15.6 12
21 13.09 З 2 10 км {ливн. осадки} 10/6 960 м
[Sc Ac und]
+11.4 +10.0 91 +10 +10 1008.8 1006.4
00 14.09 З 1 10 км {ливн. осадки} 4/4 1000 м
[Sc]
+9.9 +7.4 84 +9 +9 1010.8 1008.4
03 14.09 З 2 10 км в посл. час ливневой дождь 5/5 600 м
[Cb cap]
+10.0 +8.1 88 +8 +8 1011.5 1009.1 +9.6 5
06 14.09 З 2 10 км в посл. час ливневой дождь 5/5 600 м
[Cb cap]
+11.8 +8.1 78 +11 +12 1012.8 1010.4 +9.6 2
09 14.09 СЗ 4
{11}
20 км 8/8 1080 м
[Cb cap]
+13.6 +6.1 60 +12 +13 1013.7 1011.3
12 14.09 З 4
{11}
20 км 8/8 1000 м
[Cb cap]
+14.6 +6.1 57 +14 +14 1014.2 1011.8
15 14.09 З 2 20 км 6/6 600 м
[Cb cap]
+13.5 +6.9 64 +13 +13 1014.0 1011.6 0.4
18 14.09 ЮЗ 2 10 км в посл. час гроза 8/8 840 м
[Cb cap]
+10.2 +6.1 76 +9 +9 1014.2 1011.8 +15.1 0.0
21 14.09 ЮЗ 3 10 км слаб. ливневой дождь [макс. диам. градин 10 мм] 8/8 540 м
[Cb cap]
+8.2 +6.7 90 +5 +5 1014.7 1012.3
00 15.09 ЮЗ 2 10 км {ливн. осадки} 1/1 600 м
[Sc]
+7.6 +6.5 93 +5 +5 1014.1 1011.7
03 15.09 Ю 1 10 км 10/1 600 м
[Sc Ac und]
+5.1 +4.4 95 +4 +4 1012.3 1009.8 +4.8 4
06 15.09 Ю 3 10 км слаб. дождь 10/0
[As op]
+8.2 +6.9 92 +5 +6 1008.7 1006.3 +4.8 4
09 15.09 ЮВ 4 4000 м дождь 10/10 270 м
[Frnb Ns]
+9.2 +8.2 93 +6 +6 1002.4 1000.0
12 15.09 Ю 3
{10}
4000 м дождь 10/10 240 м
[Frnb Ns]
+10.4 +9.4 94 +8 +8 996.0 993.6
15 15.09 ЮЗ 3 10 км слаб. ливневой дождь 10/10 270 м
[Cb cap]
+11.7 +10.9 95 +10 +10 990.9 988.5 17
18 15.09 ЮЗ 4
{12}
10 км {ливн. осадки, дождь} ясно +10.8 +9.0 89 +8 +8 990.9 988.5 +12.6 18
21 15.09 ЮЗ 4 10 км 1/0
[Ci fib]
+10.2 +7.7 84 +8 +8 990.5 988.1
00 16.09 ЮЗ 3 10 км в посл. час ливневой дождь {гроза} 10/5 600 м
[Cb cap Ac trans]
+9.4 +7.3 87 +7 +7 990.3 987.9
03 16.09 ЮЗ 3 10 км 3/0
[Ac As]
+8.8 +6.9 88 +6 +6 990.1 987.7 +8.4 1
06 16.09 ЮЗ 4 20 км в посл. час ливневой дождь 5/4 600 м
[Cb cap Ac trans]
+10.7 +8.3 85 +8 +9 988.9 986.5 +8.3 0.3
09 16.09 З 2 10 км слаб. ливневой дождь 9/9 630 м
[Cb cap]
+10.9 +9.7 92 +9 +10 989.2 986.8
12 16.09 З 3
{12}
20 км {ливн. осадки} 9/5 600 м
[Cb cap Ac trans Ci fib]
+13.2 +7.0 66 +12 +13 990.7 988.3
15 16.09 СЗ 3
{10}
20 км 8/6 960 м
[Cb cap Ac trans]
+11.6 +7.2 74 +10 +10 992.2 989.8 5
18 16.09 З 1 10 км слаб. ливневой дождь 10/10 720 м
[Cb cap]
+9.8 +7.9 88 +9 +9 993.6 991.2 +14.8 5
21 16.09 СЗ 1 10 км слаб. ливневой дождь 10/10 800 м
[Cb cap]
+9.0 +8.2 95 +8 +8 994.3 991.9
00 17.09 штиль 0 10 км {ливн. осадки} 10/0
[Ac As]
+7.9 +7.7 99 +7 +7 994.3 991.9
03 17.09 З 1 10 км 8/1 1000 м
[Sc Ac As Ci fib]
+6.6 +5.9 95 +5 +5 994.7 992.3 +6.6 2
06 17.09 ЮЗ 1 10 км 10/8 1020 м
[Sc Ci fib]
+8.5 +7.7 95 +8 +8 994.9 992.5 +6.1 2
09 17.09 СЗ 2 10 км {ливн. осадки} 9/9 1230 м
[Sc]
+10.1 +6.5 78 +9 +9 995.8 993.4
12 17.09 ЮЗ 2 20 км {ливн. осадки} 9/4 1000 м
[Sc Ac trans Ci fib]
+11.2 +4.8 65 +10 +12 996.1 993.7
15 17.09 З 1 20 км 10/1 1000 м
[Sc Ac trans Ci fib]
+11.0 +5.4 68 +11 +11 996.3 993.9 0.0
18 17.09 штиль 0 10 км 10/3 1000 м
[Sc Ac trans Ci fib]
+7.1 +5.8 91 +6 +6 996.8 994.4 +11.9 0.0
21 17.09 штиль 0 10 км 9/3 1000 м
[Sc Ac trans]
+6.5 +6.1 97 +5 +5 996.8 994.4
00 18.09 штиль 0 10 км 9/5 1000 м
[Sc Ac trans]
+6.3 +5.9 97 +5 +5 997.0 994.6
03 18.09 СЗ 1 10 км 10/10 1230 м
[Sc]
+7.1 +6.4 95 +6 +6 997.8 995.4 +5.8
06 18.09 С 2 10 км 8/0
[Ac As]
+8.0 +6.3 89 +6 +7 1000.3 997.9 +5.8
09 18.09 СВ 3 20 км ливневой дождь 8/8 720 м
[Cb cap]
+12.5 +9.4 81 +11 +12 1001.0 998.6
12 18.09 СВ 3 10 км в посл. час ливневой дождь 9/8 1080 м
[Cb cap Ac trans]
+11.1 +6.9 75 +9 +10 1002.6 1000.2
15 18.09 СЗ 1 10 км в посл. час ливневой дождь 9/4 600 м
[Cb cap Ac trans]
+10.4 +6.3 76 +10 +10 1004.4 1002.0 3
18 18.09 С 2 10 км {ливн. осадки} 9/4 600 м
[Cb cap Ac trans]
+8.0 +6.0 87 +6 +6 1006.6 1004.2 +12.5 3
21 18.09 С 1 10 км 10/3 600 м
[Sc Ac und]
+7.2 +5.9 91 +6 +6 1008.0 1005.6
00 19.09 СЗ 1 10 км {ливн. осадки} 10/4 600 м
[Cb cap Ac und]
+6.2 +4.8 91 +5 +5 1009.5 1007.0
03 19.09 С 1 10 км 8/3 600 м
[Sc Ac trans]
+5.4 +4.0 91 +4 +4 1010.4 1007.9 +5.1 0.4

 

Местоположение метеостанции Кингисепп (Ленинградская область, Россия): широта 59.37 долгота 28.60 высота над уровнем моря 20 м.

В архиве по умолчанию представлена погода в Кингисеппе за последнюю неделю. Архивные данные за месяц целиком и за предыдущие месяцы, начиная с января 2011 года, Вы можете получить, выбрав интересующий диапазон дат из раскрывающегося списка и нажав кнопку "Ввод!".


*Определитесь, кто Вы:
робот инопланетянин человек

Внимание! Время в таблицах - всемирное. Для получения местного времени необходимо прибавить поправку, которая равна 3 ч.

Смотрите также архив погоды в соседних городах и на ближайших метеорологических станциях:

Погода в Нарве (Эстония) (27 км)
Погода в Сланцах (Ленинградская область, Россия) (41 км)
Погода в Волосово (Ленинградская область, Россия) (51 км)
Погода в Сосновом Бору (Ленинградская область, Россия) (59 км)
Погода в Шепелево (Ленинградская область, Россия) (66 км)
Погода в Йохви (Эстония) (69 км)
Погода в Гдове (Псковская область, Россия) (84 км)
Погода в Белогорке (Ленинградская область, Россия) (87 км)
Погода в Ломоносове (город Санкт-Петербург, Россия) (90 км)
Погода в Кронштадте (город Санкт-Петербург, Россия) (94 км)

Пояснения к столбцам:

Ветер - указаны скорость ветра в м/с - средняя за 10 мин, порывы в срок и между сроками (в фигурных скобках) и направление, откуда дует ветер: С - северный, СВ - северо-восточный, В - восточный, ЮВ - юго-восточный, Ю - южный, ЮЗ - юго-западный, З - западный, СЗ - северо-западный.
Видимость - горизонтальная дальность видимости в метрах или километрах. При видимости от 1 до 10 км при отсутствии осадков обычно наблюдается дымка, при ухудшении видимости до 1 км и менее - туман. В сухую погоду видимость может ухудшаться дымом, пылью или мглою.
Явления - указаны атмосферные явления, наблюдавшиеся в срок или в последний час перед сроком; фигурными скобками обозначены явления, наблюдавшиеся между сроками (за 1-3 часа до срока); квадратными скобками обозначены град или гололедные отложения с указанием их диаметра в мм.
Облачность - указаны через наклонную черту общая и нижняя облачность в баллах и высота нижней границы облаков в метрах; квадратными скобками обозначены формы облаков: Ci - перистые, Cs - перисто-слоистые, Cc - перисто-кучевые, Ac - высококучевые, As - высокослоистые, Sc - слоисто-кучевые, Ns - слоисто-дождевые, Cu - кучевые, Cb - кучево-дождевые. Подробнее классификацию облаков см. в Атласе облаков (PDF).
T - Температура воздуха - температура, измеренная на высоте 2 м над землей.
Td - Температура точки росы - температура, при понижении до которой содержащийся в воздухе водяной пар достигнет насыщения.
f - Относительная влажность воздуха - влажноcть воздуха, измеренная на высоте 2 м над землей.
Te - Эффективная температура - температура, которую ощущает одетый по сезону человек в тени. Характеристика душности погоды. При расчете учитывается влияние влажности воздуха и скорости ветра на теплоощущения человека.
Tes - Эффективная температура на солнце - температура, которую ощущает человек, с поправкой на солнечный нагрев. Характеристика знойности погоды. Зависит от высоты солнца над горизонтом, облачности и скорости ветра. Ночью, в пасмурную погоду, а также при ветре 12 м/с и более поправка равна нулю.
P - Атмосферное давление - приведенное к уровню моря атмосферное давление.
Po - Атмосферное давление - измеренное на уровне метеостанции атмосферное давление.
Tmin - Минимальная температура - минимум температуры воздуха на высоте 2 м над землей.
Tmax - Максимальная температура - максимум температуры воздуха на высоте 2 м над землей.
R - Количество осадков - Количество выпавших осадков за период времени, мм. При наведении курсора мыши на число - период времени, за который выпало указанное количество осадков.
R24 - Количество осадков - Количество выпавших осадков за 24 часа, мм.
S - Снежный покров - Высота снежного покрова, см. При наведении курсора мыши на число - состояние снежного покрова и степень покрытия местности в баллах.